This is the latest recevied weather packets stored in our database for station/object K5BOU. If no packets are shown the sender has not sent any weather packets the latest 10 day(s).
| Time | Temp. | Humidity | Pressure | Rain* | Wind** | Luminosity | Snow |
|---|---|---|---|---|---|---|---|
| 1788387688 | 34.44° C | 65% | 1009.5 hPa | 0 mm | - | 177 W/m² | - |
| 1788387367 | 35° C | 64% | 1009.6 hPa | 0 mm | - | 195 W/m² | - |
| 1788387062 | 35° C | 65% | 1009.5 hPa | 0 mm | - | 201 W/m² | - |
| 1788386757 | 35° C | 65% | 1009.6 hPa | 0 mm | - | 200 W/m² | - |
| 1788386452 | 35° C | 64% | 1009.3 hPa | 0 mm | - | 201 W/m² | - |
| 1788386148 | 35° C | 63% | 1009.4 hPa | 0 mm | - | 212 W/m² | - |
| 1788385843 | 35° C | 63% | 1009.6 hPa | 0 mm | - | 210 W/m² | - |
| 1788385538 | 35.56° C | 62% | 1009.6 hPa | 0 mm | - | 233 W/m² | - |
| 1788385237 | 35.56° C | 61% | 1009.5 hPa | 0 mm | - | 295 W/m² | - |
| 1788384933 | 35.56° C | 59% | 1009.5 hPa | 0 mm | - | 330 W/m² | - |
| 1788384632 | 35.56° C | 59% | 1009.7 hPa | 0 mm | - | 355 W/m² | - |
| 1788384328 | 35.56° C | 59% | 1009.6 hPa | 0 mm | - | 271 W/m² | - |
| 1788384024 | 35.56° C | 59% | 1009.8 hPa | 0 mm | - | 235 W/m² | - |
| 1788383720 | 35.56° C | 60% | 1009.9 hPa | 0 mm | - | 232 W/m² | - |
| 1788383415 | 35.56° C | 60% | 1009.8 hPa | 0 mm | - | 250 W/m² | - |
| 1788383114 | 36.11° C | 59% | 1010 hPa | 0 mm | - | 268 W/m² | - |
| 1788382814 | 35.56° C | 60% | 1009.9 hPa | 0 mm | - | 586 W/m² | - |
| 1788382508 | 36.11° C | 62% | 1009.9 hPa | 0 mm | - | 341 W/m² | - |
| 1788382204 | 35.56° C | 61% | 1009.8 hPa | 0 mm | - | 311 W/m² | - |
| 1788381903 | 35.56° C | 61% | 1010.2 hPa | 0 mm | - | 495 W/m² | - |
| 1788381598 | 35.56° C | 59% | 1010.1 hPa | 0 mm | - | 266 W/m² | - |
| 1788381294 | 35.56° C | 59% | 1010 hPa | 0 mm | - | 390 W/m² | - |
| 1788380992 | 35.56° C | 61% | 1010.2 hPa | 0 mm | - | 342 W/m² | - |
| 1788380689 | 35.56° C | 59% | 1010.2 hPa | 0 mm | - | 314 W/m² | - |
| 1788380385 | 35.56° C | 59% | 1010.3 hPa | 0 mm | - | 334 W/m² | - |
* Rain latest hour (hover to see other rain measurements)
** Current wind speed in m/s (hover to see current wind gust speed)